Date String (YYYY-MM-DD hh:mm:ss) UTC,Instrument flags,Ambient pressure (hPa),Sample flow (lpm),Bypass flow (lpm),Sample temperature (°C),Ambient temperature (°C),ASC tube jacket temperature (°C),LED temperature (°C),Box temperature (°C),Sample RH (%),Span deviation,Mass concentration (μg/m³),Mass concentration (μg/m³),Mass concentration (μg/m³)
DateTimeUTC,F1_M11,P_M11,Q1_M11,Q2_M11,T1_M11,T2_M11,T3_M11,T4_M11,T5_M11,U1_M11,ZSPAN_M11,X0_M11,X2_M11,X1_M11
2023-05-02 04:00:00,,0828.1,5.00,0.00,30.6,26.4,00.0,38.8,31.8,12.7,0000.0,0019.74,0006.01,0003.92
2023-05-02 04:01:00,,0828.1,5.01,0.00,30.5,25.8,00.0,38.7,31.6,12.7,0000.0,0019.97,0006.16,0003.97
2023-05-02 04:02:00,,0828.1,5.00,0.00,30.3,25.9,00.0,38.7,31.4,12.8,0000.0,0020.52,0006.16,0004.02
2023-05-02 04:03:00,,0828.0,5.00,0.00,30.3,26.3,00.0,38.7,31.4,12.8,0000.0,0019.91,0006.15,0004.07
2023-05-02 04:04:00,,0828.1,5.00,0.00,30.2,26.7,00.0,38.7,31.4,12.9,0000.0,0020.42,0006.24,0004.12
2023-05-02 04:05:00,,0828.1,5.00,0.00,30.2,27.1,00.0,38.7,31.5,13.0,0000.0,0020.98,0006.34,0004.16
2023-05-02 04:06:00,,0828.1,5.00,0.00,30.2,27.4,00.0,38.7,31.5,13.1,0000.0,0020.61,0006.41,0004.20
2023-05-02 04:07:00,,0828.0,4.99,0.00,30.1,27.6,00.0,38.6,31.5,13.0,0000.6,0019.24,0006.42,0004.25
2023-05-02 04:08:00,,0828.1,5.00,0.00,30.1,27.8,00.0,38.6,31.6,12.9,0000.5,0019.36,0006.41,0004.26
2023-05-02 04:09:00,,0828.0,5.00,0.00,30.1,28.0,00.0,38.6,31.6,13.0,0000.0,0019.22,0006.42,0004.28
2023-05-02 04:10:00,,0828.1,5.01,0.00,30.1,28.2,00.0,38.6,31.6,12.7,0000.7,0018.35,0006.42,0004.31
2023-05-02 04:11:00,,0828.1,5.01,0.00,30.1,28.3,00.0,38.6,31.6,12.9,0004.2,0019.32,0006.42,0004.34
2023-05-02 04:12:00,,0828.0,5.00,0.00,30.1,28.3,00.0,38.6,31.6,12.8,0003.0,0020.25,0006.36,0004.35
2023-05-02 04:13:00,,0828.1,4.99,0.00,30.1,28.4,00.0,38.6,31.7,12.8,0001.5,0019.90,0006.41,0004.35
2023-05-02 04:14:00,,0828.1,4.99,0.00,30.1,28.4,00.0,38.6,31.7,12.6,0001.4,0019.96,0006.46,0004.34
2023-05-02 04:15:00,,0828.2,5.01,0.00,30.1,28.4,00.0,38.6,31.7,12.3,0000.0,0019.36,0006.43,0004.30
2023-05-02 04:16:00,,0828.2,5.01,0.00,30.1,28.5,00.0,38.6,31.7,12.3,0000.0,0018.66,0006.37,0004.26
2023-05-02 04:17:00,,0828.2,5.00,0.00,30.1,28.6,00.0,38.6,31.7,12.4,0000.0,0018.15,0006.26,0004.22
2023-05-02 04:18:00,,0828.2,4.99,0.00,30.2,28.6,00.0,38.6,31.7,12.4,0000.0,0017.83,0006.20,0004.19
2023-05-02 04:19:00,,0828.2,4.99,0.00,30.2,28.7,00.0,38.6,31.7,12.5,0000.0,0017.17,0006.14,0004.19
2023-05-02 04:20:00,,0828.1,5.00,0.00,30.2,28.7,00.0,38.6,31.8,12.5,0000.0,0016.85,0006.14,0004.18
2023-05-02 04:21:00,,0828.2,5.00,0.00,30.2,28.8,00.0,38.6,31.8,12.4,0000.0,0017.05,0006.13,0004.14
2023-05-02 04:22:00,,0828.1,5.01,0.00,30.2,28.8,00.0,38.6,31.8,12.6,0000.0,0016.04,0006.17,0004.13
2023-05-02 04:23:00,,0828.2,5.01,0.00,30.2,28.8,00.0,38.6,31.8,12.8,0000.0,0014.79,0006.16,0004.14
2023-05-02 04:24:00,,0828.1,4.99,0.00,30.3,28.8,00.0,38.6,31.7,13.0,0000.0,0015.32,0006.14,0004.15
2023-05-02 04:25:00,,0828.1,4.99,0.00,30.3,28.8,00.0,38.6,31.8,12.9,0000.0,0015.66,0006.13,0004.20
2023-05-02 04:26:00,,0828.1,5.01,0.00,30.3,28.8,00.0,38.6,31.8,12.9,0000.0,0015.87,0006.27,0004.30
2023-05-02 04:27:00,,0828.1,5.00,0.00,30.2,28.7,00.0,38.6,31.7,13.1,0000.0,0016.90,0006.50,0004.43
2023-05-02 04:28:00,,0828.1,5.00,0.00,30.2,28.7,00.0,38.6,31.7,13.1,0000.0,0017.34,0006.70,0004.55
2023-05-02 04:29:00,,0828.1,5.00,0.00,30.2,28.7,00.0,38.6,31.8,13.1,0000.0,0017.65,0006.92,0004.69
2023-05-02 04:30:00,,0828.0,5.01,0.00,30.2,28.6,00.0,38.6,31.7,13.2,0000.0,0018.75,0007.12,0004.80
2023-05-02 04:31:00,,0828.1,5.01,0.00,30.2,28.6,00.0,38.6,31.7,13.2,0000.0,0019.35,0007.28,0004.89
2023-05-02 04:32:00,,0828.1,5.00,0.00,30.2,28.5,00.0,38.6,31.7,13.2,0000.0,0019.19,0007.32,0004.98
2023-05-02 04:33:00,,0828.1,5.01,0.00,30.2,28.5,00.0,38.6,31.7,13.1,0000.0,0020.63,0007.31,0005.05
2023-05-02 04:34:00,,0828.1,5.00,0.00,30.2,28.5,00.0,38.6,31.7,13.2,0000.0,0021.15,0007.37,0005.12
2023-05-02 04:35:00,,0828.1,5.00,0.00,30.2,28.5,00.0,38.6,31.7,13.2,0000.0,0021.32,0007.45,0005.17
2023-05-02 04:36:00,,0828.1,5.00,0.00,30.2,28.5,00.0,38.6,31.7,13.2,0000.0,0020.98,0007.52,0005.19
2023-05-02 04:37:00,,0828.1,5.00,0.00,30.2,28.5,00.0,38.6,31.7,13.3,0000.0,0022.04,0007.51,0005.19
2023-05-02 04:38:00,,0828.1,5.00,0.00,30.2,28.5,00.0,38.6,31.7,13.2,0000.0,0021.67,0007.38,0005.13
2023-05-02 04:39:00,,0828.1,5.01,0.00,30.2,28.5,00.0,38.6,31.7,13.3,0000.0,0022.33,0007.30,0005.08
2023-05-02 04:40:00,,0828.1,5.00,0.00,30.2,28.5,00.0,38.6,31.7,13.1,0000.0,0022.22,0007.18,0005.01
2023-05-02 04:41:00,,0828.1,5.00,0.00,30.2,28.5,00.0,38.6,31.7,12.9,0000.0,0021.69,0007.03,0004.91
2023-05-02 04:42:00,,0828.1,4.99,0.00,30.1,28.5,00.0,38.6,31.7,13.0,0000.0,0021.64,0006.92,0004.85
2023-05-02 04:43:00,,0828.1,5.02,0.00,30.1,28.5,00.0,38.6,31.7,13.1,0000.0,0022.16,0006.87,0004.80
2023-05-02 04:44:00,,0828.1,5.00,0.00,30.1,28.5,00.0,38.6,31.6,13.1,0000.0,0022.08,0006.85,0004.73
2023-05-02 04:45:00,,0828.1,5.00,0.00,30.1,28.5,00.0,38.6,31.6,12.9,0000.0,0021.93,0006.77,0004.65
2023-05-02 04:46:00,,0828.1,5.00,0.00,30.1,28.5,00.0,38.6,31.6,13.1,0000.0,0021.85,0006.67,0004.59
2023-05-02 04:47:00,,0828.1,4.99,0.00,30.1,28.5,00.0,38.6,31.7,13.2,0000.0,0021.83,0006.54,0004.52
2023-05-02 04:48:00,,0828.1,5.00,0.00,30.1,28.5,00.0,38.6,31.7,12.8,0000.0,0020.72,0006.40,0004.44
2023-05-02 04:49:00,,0828.1,5.00,0.00,30.1,28.6,00.0,38.6,31.7,12.6,0000.0,0020.18,0006.30,0004.37
2023-05-02 04:50:00,,0828.1,5.00,0.00,30.1,28.6,00.0,38.6,31.7,12.7,0000.0,0019.75,0006.27,0004.31
2023-05-02 04:51:00,,0828.1,5.00,0.00,30.1,28.6,00.0,38.6,31.7,12.7,0000.0,0019.50,0006.18,0004.25
2023-05-02 04:52:00,,0828.1,5.00,0.00,30.1,28.6,00.0,38.6,31.7,12.7,0000.0,0019.15,0006.14,0004.22
2023-05-02 04:53:00,,0828.1,5.02,0.00,30.1,28.6,00.0,38.6,31.7,12.6,0000.0,0018.82,0006.09,0004.19
2023-05-02 04:54:00,,0828.1,5.00,0.00,30.1,28.6,00.0,38.6,31.7,12.6,0000.0,0018.43,0006.03,0004.13
2023-05-02 04:55:00,,0828.1,4.99,0.00,30.1,28.6,00.0,38.6,31.7,12.5,0000.0,0017.35,0005.92,0004.06
2023-05-02 04:56:00,,0828.0,5.00,0.00,30.1,28.6,00.0,38.6,31.7,12.5,0000.0,0017.33,0005.84,0004.02
2023-05-02 04:57:00,,0828.1,5.00,0.00,30.1,28.6,00.0,38.6,31.7,12.5,0000.0,0017.76,0005.82,0004.00
2023-05-02 04:58:00,,0828.1,5.00,0.00,30.1,28.6,00.0,38.6,31.7,12.5,0000.0,0018.95,0005.83,0003.99
2023-05-02 04:59:00,,0828.1,5.00,0.00,30.1,28.5,00.0,38.6,31.7,12.5,0000.0,0020.10,0005.84,0003.99
